Weather History for KABQ - February, 2014

Change the Weather History Date:

Monday, February 24, 2014

  Actual Average Record
Temperature  
Mean Temperature 49 °F 44 °F  
Max Temperature 68 °F 55 °F 79 °F (1904)
Min Temperature 30 °F 32 °F 11 °F (1909)
Degree Days  
Heating Degree Days 16 21  
Month to date heating degree days 491 578  
Since 1 July heating degree days 3087 3220  
Cooling Degree Days 0 0  
Month to date cooling degree days 0 0  
Year to date cooling degree days 0 0  
Moisture  
Dew Point 13 °F    
Average Humidity 30    
Maximum Humidity 47    
Minimum Humidity 13    
Precipitation  
Precipitation 0.00 in 0.02 in 0.43 in (1930)
Month to date precipitation 0.18 0.41  
Year to date precipitation 0.18 0.79  
Snow  
Snow 0.00 in - - ()
Month to date snowfall 1.7  
Since 1 July snowfall 6.6  
Snow Depth 0.00 in    
Sea Level Pressure  
Sea Level Pressure 30.00 in    
Wind  
Wind Speed 3 mph (West)    
Max Wind Speed 14 mph    
Max Gust Speed 19 mph    
Visibility 10 miles    
Events      
T = Trace of Precipitation, MM = Missing Value Source: NWS Daily Summary

Daily Weather History Graph

Daily Weather History Graph

Search for Another Location

Airport or City:

Trip Planner

Search our weather history database for the weather conditions in past years. The results will help you decide how hot, cold, wet, or windy it might be!

Date:

Astronomy

Feb. 24, 2014 Rise Set
Actual Time 6:42 AM MST 5:57 PM MST
Civil Twilight 6:16 AM MST 6:23 PM MST
Nautical Twilight 5:47 AM MST 6:52 PM MST
Astronomical Twilight 5:17 AM MST 7:22 PM MST
Moon 2:36 AM MST (2/24) 1:08 PM MST (2/24)
Length of Visible Light 12h 06m
Length of Day
11h 15m
Waning Crescent, 27% of the Moon is Illuminated
Feb 24
Waning Crescent
Mar 1
New
Mar 8
First Quarter
Mar 16
Full
Mar 23
Last Quarter

Hourly Weather History & Observations

Time (MST) Temp. Windchill Dew Point Humidity Pressure Visibility Wind Dir Wind Speed Gust Speed Precip Events Conditions
12:52 AM 43.0 °F - 15.1 °F 32% 29.98 in 10.0 mi Calm Calm - N/A   Partly Cloudy
1:52 AM 42.1 °F - 10.9 °F 28% 29.98 in 10.0 mi Calm Calm - N/A   Clear
2:52 AM 39.0 °F 36.8 °F 12.9 °F 34% 29.99 in 10.0 mi West 3.5 mph - N/A   Partly Cloudy
3:52 AM 39.0 °F - 12.9 °F 34% 29.99 in 10.0 mi Calm Calm - N/A   Partly Cloudy
4:52 AM 30.9 °F - 12.9 °F 47% 30.04 in 10.0 mi Calm Calm - N/A   Clear
5:52 AM 36.0 °F 33.3 °F 12.9 °F 39% 30.04 in 10.0 mi South 3.5 mph - N/A   Clear
6:52 AM 35.1 °F - 10.0 °F 35% 30.08 in 10.0 mi Calm Calm - N/A   Clear
7:52 AM 41.0 °F - 15.1 °F 35% 30.09 in 10.0 mi Calm Calm - N/A   Clear
8:52 AM 44.1 °F - 14.0 °F 30% 30.09 in 10.0 mi Calm Calm - N/A   Clear
9:52 AM 51.1 °F - 12.9 °F 22% 30.08 in 10.0 mi South 3.5 mph - N/A   Clear
10:52 AM 55.0 °F - 14.0 °F 20% 30.06 in 10.0 mi Variable 3.5 mph - N/A   Clear
11:52 AM 59.0 °F - 14.0 °F 17% 30.03 in 10.0 mi SSE 4.6 mph - N/A   Clear
12:52 PM 61.0 °F - 15.1 °F 17% 30.00 in 10.0 mi South 3.5 mph - N/A   Partly Cloudy
1:52 PM 64.0 °F - 15.1 °F 15% 29.96 in 10.0 mi West 5.8 mph - N/A   Partly Cloudy
2:52 PM 66.9 °F - 15.1 °F 14% 29.93 in 10.0 mi Variable 3.5 mph - N/A   Partly Cloudy
3:52 PM 66.9 °F - 14.0 °F 13% 29.91 in 10.0 mi WNW 10.4 mph - N/A   Partly Cloudy
4:52 PM 66.9 °F - 14.0 °F 13% 29.93 in 10.0 mi WNW 8.1 mph - N/A   Partly Cloudy
5:52 PM 64.0 °F - 12.9 °F 14% 29.93 in 10.0 mi NW 6.9 mph - N/A   Partly Cloudy
6:52 PM 61.0 °F - 10.9 °F 14% 29.96 in 10.0 mi North 8.1 mph - N/A   Partly Cloudy
7:52 PM 54.0 °F - 12.0 °F 19% 29.98 in 10.0 mi SSE 3.5 mph - N/A   Partly Cloudy
8:52 PM 55.9 °F - 12.0 °F 18% 29.97 in 10.0 mi NNW 4.6 mph - N/A   Partly Cloudy
9:52 PM 53.1 °F - 12.0 °F 20% 29.97 in 10.0 mi NNE 5.8 mph - N/A   Partly Cloudy
10:52 PM 50.0 °F - 10.9 °F 21% 29.98 in 10.0 mi Calm Calm - N/A   Partly Cloudy
11:52 PM 44.1 °F 41.5 °F 12.0 °F 27% 29.98 in 10.0 mi NNE 4.6 mph - N/A   Partly Cloudy